EW1065 Weather Reports


Display with metric or nautical units.
time (UTC)temp
F
wind
direction
speed
MPH
gust
MPH
rain 1hr
in
rain 24hr
in
rain mn
in
humidity
%
barometer
mb
20260905162519 87 0.0 1.0 0.00 0.54 0.54 63 1015.4
20260905161519 86 0.0 0.0 0.00 0.54 0.54 64 1015.0
20260905160519 85 0.0 3.0 0.00 0.54 0.54 70 1015.1
20260905155559 84 0.0 1.0 0.00 0.54 0.54 71 1015.0
20260905154559 84 270 1.0 4.0 0.00 0.54 0.54 71 1015.2
20260905153519 83 0.0 1.0 0.00 0.54 0.54 74 1015.1
20260905152519 82 225 1.0 4.0 0.00 0.54 0.54 75 1015.1
20260905151519 81 0.0 1.0 0.00 0.54 0.54 79 1015.1
20260905150519 80 0.0 1.0 0.00 0.54 0.54 81 1015.1
20260905145519 79 158 1.0 4.0 0.00 0.54 0.54 82 1015.1
20260905144559 77 0.0 1.0 0.00 0.54 0.54 86 1015.2
20260905143519 76 0.0 1.0 0.00 0.54 0.54 90 1015.4
20260905142519 75 0.0 1.0 0.00 0.54 0.54 94 1015.5
20260905141519 74 0.0 2.0 0.00 0.54 0.54 96 1015.8
20260905140519 73 0.0 2.0 0.00 0.54 0.54 97 1015.8
20260905135519 72 0.0 1.0 0.00 0.54 0.54 98 1015.7
20260905134559 72 0.0 1.0 0.00 0.54 0.54 98 1015.6
20260905133519 72 0.0 3.0 0.00 0.54 0.54 98 1015.8
20260905132519 72 0.0 2.0 0.00 0.54 0.54 99 1016.2
20260905131559 72 0.0 2.0 0.00 0.54 0.54 99 1016.2
20260905130519 72 0.0 1.0 0.00 0.54 0.54 99 1016.5
20260905125519 71 0.0 1.0 0.00 0.54 0.54 99 1016.1
20260905124559 71 0.0 1.0 0.03 0.54 0.54 99 1016.1
20260905123519 72 0.0 1.0 0.13 0.54 0.54 99 1016.1
20260905122519 72 0.0 4.0 0.13 0.54 0.54 99 1016.0
20260905121519 72 293 1.0 5.0 0.13 0.54 0.54 99 1015.9
20260905120519 72 0.0 0.0 0.13 0.54 0.54 99 1014.7
20260905115519 72 0.0 1.0 0.13 0.54 0.54 99 1014.4
20260905114519 72 0.0 2.0 0.10 0.51 0.51 99 1015.2
20260905113519 72 0.0 0.0 0.00 0.41 0.41 99 1015.1
20260905112519 72 0.0 1.0 0.00 0.41 0.41 99 1014.8
20260905111519 72 0.0 2.0 0.00 0.41 0.41 99 1014.8
20260905110559 72 0.0 1.0 0.00 0.41 0.41 99 1015.1
20260905105519 73 0.0 0.0 0.00 0.41 0.41 99 1014.9
20260905104520 73 0.0 0.0 0.00 0.41 0.41 99 1014.8
20260905103519 73 0.0 0.0 0.00 0.41 0.41 98 1015.0
20260905102519 73 0.0 0.0 0.07 0.41 0.41 98 1014.5
20260905101519 74 0.0 0.0 0.30 0.41 0.41 98 1014.3
20260905100519 74 0.0 1.0 0.41 0.41 0.41 98 1014.1
20260905095519 74 0.0 0.0 0.41 0.41 0.41 97 1014.2
20260905094519 74 0.0 0.0 0.41 0.41 0.41 96 1014.0
20260905093519 75 0.0 4.0 0.41 0.41 0.41 95 1013.9
20260905092601 75 45 2.0 10.0 0.34 0.34 0.34 95 1014.6
20260905091519 76 248 2.0 9.0 0.11 0.11 0.12 98 1014.7
20260905090519 75 0.0 0.0 0.00 0.00 0.00 98 1013.6
20260905085519 75 0.0 0.0 0.00 0.00 0.00 99 1013.9
20260905084519 75 0.0 2.0 0.00 0.00 0.00 99 1014.1
20260905083519 74 0.0 0.0 0.00 0.00 0.00 99 1013.6
20260905082559 74 0.0 0.0 0.00 0.00 0.00 99 1013.8
20260905081519 74 0.0 0.0 0.00 0.00 0.00 98 1013.8
20260905080519 74 0.0 0.0 0.00 0.00 0.00 98 1013.6
20260905075519 74 0.0 0.0 0.00 0.00 0.00 98 1013.4
20260905074519 74 0.0 0.0 0.00 0.00 0.00 98 1013.7
20260905073519 74 0.0 0.0 0.00 0.00 0.00 98 1013.7
20260905072519 74 0.0 0.0 0.00 0.00 0.00 98 1013.9
20260905071519 74 0.0 0.0 0.00 0.00 0.00 98 1014.1
20260905070559 74 0.0 0.0 0.00 0.00 0.00 98 1014.0
20260905065519 74 0.0 0.0 0.00 0.00 0.00 98 1014.3
20260905064519 74 0.0 0.0 0.00 0.00 0.00 98 1014.3
20260905063522 74 0.0 0.0 0.00 0.00 0.00 98 1014.4
20260905062519 74 0.0 0.0 0.00 0.00 0.00 98 1014.6
20260905061519 74 0.0 0.0 0.00 0.00 0.00 97 1014.7
20260905060519 75 0.0 0.0 0.00 0.00 0.00 97 1014.9
20260905055600 75 0.0 0.0 0.00 0.00 0.00 97 1014.9
20260905054519 75 0.0 0.0 0.00 0.00 0.00 97 1014.9
20260905053519 75 0.0 0.0 0.00 0.00 0.00 97 1014.8
20260905052519 75 0.0 0.0 0.00 0.00 0.00 97 1014.9
20260905051519 75 0.0 0.0 0.00 0.00 0.00 97 1014.9
20260905050520 75 0.0 0.0 0.00 0.00 0.00 96 1014.9
20260905045519 76 0.0 0.0 0.00 0.00 0.00 96 1014.9
20260905044519 76 0.0 0.0 0.00 0.00 0.00 96 1015.1
20260905043519 76 0.0 0.0 0.00 0.00 0.00 96 1015.1
20260905042520 76 0.0 0.0 0.00 0.00 0.00 96 1015.1
20260905041559 76 0.0 0.0 0.00 0.00 0.00 96 1015.2
20260905040519 76 0.0 0.0 0.00 0.00 0.00 95 1015.0
20260905035519 76 0.0 0.0 0.00 0.00 0.00 95 1015.1
20260905034519 77 0.0 0.0 0.00 0.00 0.00 95 1015.0
20260905033519 77 0.0 0.0 0.00 0.00 0.00 95 1015.1
20260905032519 77 0.0 0.0 0.00 0.00 0.00 95 1015.0
20260905031519 77 0.0 0.0 0.00 0.00 0.00 95 1015.1
20260905030520 77 0.0 0.0 0.00 0.00 0.00 95 1015.0
20260905025519 77 0.0 0.0 0.00 0.00 0.00 94 1015.1
20260905024519 78 0.0 0.0 0.00 0.00 0.00 94 1015.1
20260905023519 78 0.0 0.0 0.00 0.00 0.00 94 1015.0
20260905021519 78 0.0 0.0 0.00 0.00 0.00 94 1014.8
20260905020600 78 0.0 0.0 0.00 0.00 0.00 93 1014.7
20260905015519 79 0.0 0.0 0.00 0.00 0.00 93 1014.7
20260905014600 79 0.0 0.0 0.00 0.00 0.00 92 1014.5
20260905013520 79 0.0 0.0 0.00 0.00 0.00 92 1014.5
20260905012519 79 0.0 0.0 0.00 0.00 0.00 92 1014.3
20260905011519 80 0.0 0.0 0.00 0.00 0.00 91 1014.1
20260905010519 80 0.0 0.0 0.00 0.00 0.00 90 1014.1
20260905005519 81 0.0 0.0 0.00 0.00 0.00 90 1013.9
20260905004520 81 0.0 0.0 0.00 0.00 0.00 89 1013.8
20260905003519 82 0.0 0.0 0.00 0.00 0.00 88 1013.7
20260905002519 82 0.0 0.0 0.00 0.00 0.00 86 1013.7
20260905001519 83 0.0 0.0 0.00 0.00 0.00 85 1013.5
20260905000520 84 0.0 0.0 0.00 0.00 0.00 84 1013.6
20260904235519 85 0.0 0.0 0.00 0.00 0.00 82 1013.6
20260904234519 87 0.0 0.0 0.00 0.00 0.00 79 1013.6
20260904233519 88 0.0 0.0 0.00 0.00 0.00 76 1013.6
20260904232519 89 0.0 0.0 0.00 0.00 0.00 75 1013.6
20260904231519 90 0.0 0.0 0.00 0.00 0.00 73 1013.8
20260904230639 92 0.0 0.0 0.00 0.00 0.00 70 1013.9
20260904225520 94 0.0 0.0 0.00 0.00 0.00 65 1014.1
20260904224519 97 0.0 0.0 0.00 0.00 0.00 60 1014.3
20260904223519 98 0.0 0.0 0.00 0.00 0.00 55 1014.4
20260904222519 99 0.0 0.0 0.00 0.00 0.00 52 1014.5
20260904221520 99 0.0 2.0 0.00 0.00 0.00 50 1014.6
20260904220519 99 0.0 1.0 0.00 0.00 0.00 52 1014.6
20260904215519 99 0.0 1.0 0.00 0.00 0.00 52 1014.6
20260904214520 98 0.0 2.0 0.00 0.00 0.00 50 1014.5
20260904213519 99 0.0 3.0 0.00 0.00 0.00 48 1014.6
20260904212519 99 0.0 2.0 0.00 0.00 0.00 49 1014.6
20260904211539 99 0.0 2.0 0.00 0.00 0.00 51 1014.5
20260904210519 98 0.0 1.0 0.00 0.00 0.00 52 1014.6
20260904205600 98 0.0 3.0 0.00 0.00 0.00 49 1014.6
20260904204519 98 0.0 2.0 0.00 0.00 0.00 50 1014.6
20260904203520 98 338 1.0 3.0 0.00 0.00 0.00 50 1014.7
20260904202520 98 0.0 2.0 0.00 0.00 0.00 49 1015.0
20260904201519 98 0.0 3.0 0.00 0.00 0.00 51 1015.1
20260904200519 98 0.0 3.0 0.00 0.00 0.00 49 1015.3
20260904195519 98 0.0 3.0 0.00 0.00 0.00 49 1015.4
20260904194519 98 0.0 2.0 0.00 0.00 0.00 53 1015.5
20260904193520 98 0.0 2.0 0.00 0.00 0.00 52 1015.8
20260904192519 98 203 1.0 3.0 0.00 0.00 0.00 51 1015.8
20260904191520 97 0.0 0.0 0.00 0.00 0.00 56 1016.0
20260904190519 96 315 1.0 3.0 0.00 0.00 0.00 53 1016.1
20260904185519 97 315 1.0 4.0 0.00 0.00 0.00 52 1016.1
20260904184519 97 0.0 3.0 0.00 0.00 0.00 54 1016.3
20260904183520 97 315 1.0 2.0 0.00 0.00 0.00 52 1016.4
20260904182519 97 0.0 3.0 0.00 0.00 0.00 55 1016.5
20260904181519 97 0.0 4.0 0.00 0.00 0.00 53 1016.7
20260904180519 97 0.0 0.0 0.00 0.00 0.00 53 1016.8
20260904175519 97 0.0 0.0 0.00 0.00 0.00 55 1016.9
20260904174520 96 0.0 0.0 0.00 0.00 0.00 53 1017.0
20260904173520 96 0.0 0.0 0.00 0.00 0.00 55 1017.0
20260904172519 95 0.0 0.0 0.00 0.00 0.00 53 1017.1
20260904171519 95 0.0 0.0 0.00 0.00 0.00 54 1017.2
20260904170519 95 0.0 0.0 0.00 0.00 0.00 56 1017.2
20260904165520 95 0.0 0.0 0.00 0.00 0.00 57 1017.3
20260904164519 95 0.0 0.0 0.00 0.00 0.00 59 1017.4
20260904163519 94 0.0 0.0 0.00 0.00 0.00 59 1017.3